Weather in Pudost'

Russia / Saint-Petersburg and Leningrad Oblast     59°36′55″N   30°02′30″E
temp.,
°C
wind,
m/s
gust,
m/s
humid.,
%
clouds,
%
prec.,
mm/h
press.,
hPa
HPBL,
m
22 january, sat
sat2200:00−6nne389599 0.1 1004343
03:00−5n41295100 0.3 1006557
06:00−4nne51294100 0.1 1008745
09:00−4n61294100 0.6 1010729
12:00−5n41094100 0.4 1012577
15:00−4nne3793100 0.7 1013696
18:00−6nne379580 0.4 1017397
21:00−12ne11100100 0.4 102012
23 january, sun
sun2300:00−15nne11100100 0.0 10229
03:00−16n1110080 0.0 10249
06:00−17nnw119960 0.0 10269
09:00−17ssw119855 0.0 102810
12:00−11ssw249393 0.0 103098
15:00−8ssw3791100 0.0 1030218
18:00−8ssw389273 0.0 1031242
21:00−8sw3109169 0.0 1031256
24 january, mon
mon2400:00−8ssw4119085 0.0 1032280
03:00−7ssw4139398 0.1 1032360
06:00−5ssw41391100 0.1 1031410
09:00−5ssw51490100 0.1 1030406
12:00−5ssw51587100 0.0 1029431
15:00−4ssw616835 0.0 1027517
18:00−6ssw617805 0.0 1025513
21:00−5ssw61782100 0.0 1022552
25 january, tue
tue2500:00−5ssw61690100 0.0 1020629
03:00−4ssw61593100 0.2 1017580
06:00−4ssw51495100 0.8 1015562
09:00−3sw41195100 2.5 1014484
12:00−2wsw3794100 0.1 1013487
15:00−1wnw3793100 0.1 1013535
18:00−2nw499390 0.1 1014673
21:00−5nw4119244 0.3 1016366
26 january, wed
wed2600:00−7nw4109480 0.1 1018333
03:00−7nnw4119494 0.1 1019402
06:00−9nnw4129481 0.1 1020329
09:00−11nnw399559 0.1 1020201
12:00−9nnw269577 0.0 1020154
15:00−8n139572 0.0 1019129
18:00−14n1110089 0.0 10189
21:00−15ese00100100 0.1 10179